Location: München
(48.1351°N, 11.5820°E)
Time: 22:35:55
(UTC+01:00)

ISS - Pass Details

Date: 26 January 2020
Orbit: 415 x 423 km, 51.6° (Epoch: 25 February)

Event Time Altitude Azimuth Distance (km) Brightness Sun altitude
Rises 18:21:26 0° 252° (WSW) 2,374 2.1 -13.1°
Reaches altitude 10° 18:23:32 10° 254° (WSW) 1,510 0.5 -13.4°
Maximum altitude 18:26:56 75° 340° (NNW) 441 -3.7 -13.9°
Enters shadow 18:28:35 28° 62° (ENE) 832 -2.8 -14.2°
